SCP
0 0 0 0 0 0 0 0 0 0 0 0 0 0 0 0 0 0 0 0 0 0 0 0 0 0 0 0 0 0 0 0 0 0 0 0 0 0 0 0 0 0 0
0 0 0 0 0 0 0 0 0 0 0 0 0 0 0 0 0 0 0 0 0 0 0 0 0 0 0 0 0 0 0 0 0 0 0 0 0 0 0 0 0 0 0
0 0 0 0 0 0 0 0 0 0 0 0 0 0 0 0 0 0 0 0 0 0 0 0 0 0 0 0 0 0 0 0 0 0 0 0 0 0 0 0 0 0 0
0 0 0 0 0 0 0 0 0 0 0 0 0 0 0 0 0 0 0 0 0 0 0 0 0 0 0 0 0 0 0 0 0 0 0 0 0 0 0 0 0 0 0
0 0 0 0 0 0 0 0 0 0 0 0 0 0 0 0 0 0 0 0 0 0 0 0 0 0 0 0 0 0 0 0 0 0 0 0 0 0 0 0 0 0 0
0 0 0 0 0 0 0 0 0 0 0 0 0 0 0 0 0 0 0 0 0 0 0 0 0 0 0 0 0 0 0 0 0 0 0 0 0 0 0 0 0 0 0
0 0 0 0 0 0 0 0 0 0 0 0 0 0 0 0 0 0 0 0 0 0 0 0 0 0 0 0 0 0 0 0 0 0 0 0 0 0 0 0 0 0 0
0 0 0 0 0 0 0 0 0 0 0 0 0 0 0 0 0 0 0 0 0 0 0 0 0 0 0 0 0 0 0 0 0 0 0 0 0 0 0 0 0 0 0
0 0 0 0 0 0 0 0 0 0 0 0 0 0 0 0 0 0 0 0 0 0 0 0 0 0 0 0 0 0 0 0 0 0 0 0 0 0 0 0 0 0 0
0 0 0 0 0 0 0 0 0 0 0 0 0 0 0 0 0 0 0 0 0 0 0 0 0 0 0 0 0 0 0 0 0 0 0 0 0 0 0 0 0 0 0
0 0 0 0 0 0 0 0 0 0 0 0 0 0 0 0 0 0 0 0 0 0 0 0 0 0 0 0 0 0 0 0 0 0 0 0 0 0 0 0 0 0 0
0 0 0 0 0 0 0 0 0 0 0 0 0 0 0 0 0 0 0 0 0 0 0 0 0 0 0 0 0 0 0 0 0 0 0 0 0 0 0 0 0 0 0
0 0 0 0 0 0 0 0 0 0 0 0 0 0 0 0 0 0 0 0 0 0 0 0 0 0 0 0 0 0 0 0 0 0 0 0 0 0 0 0 0 0 0
0 0 0 0 0 0 0 0 0 0 0 0 0 0 0 0 0 0 0 0 0 0 0 0 0 0 0 0 0 0 0 0 0 0 0 0 0 0 0 0 0 0 0
0 0 0 0 0 0 0 0 0 0 0 0 0 0 0 0 0 0 0 0 0 0 0 0 0 0 0 0 0 0 0 0 0 0 0 0 0 0 0 0 0 0 0
0 0 0 0 0 0 0 0 0 0 0 0 0 0 0 0 0 0 0 0 0 0 0 0 0 0 0 0 0 0 0 0 0 0 0 0 0 0 0 0 0 0 0
0 0 0 0 0 0 0 0 0 0 0 0 0 0 0 0 0 0 0 0 0 0 0 0 0 0 0 0 0 0 0 0 0 0 0 0 0 0 0 0 0 0 0
0 0 0 0 0 0 0 0 0 0 0 0 0 0 0 0 0 0 0 0 0 0 0 0 0 0 0 0 0 0 0 0 0 0 0 0 0 0 0 0 0 0 0
0 0 0 0 0 0 0 0 0 0 0 0 0 0 0 0 0 0 0 0 0 0 0 0 0 0 0 0 0 0 0 0 0 0 0 0 0 0 0 0 0 0 0
0 0 0 0 0 0 0 0 0 0 0 0 0 0 0 0 0 0 0 0 0 0 0 0 0 0 0 0 0 0 0 0 0 0 0 0 0 0 0 0 0 0 0
0 0 0 0 0 0 0 0 0 0 0 0 0 0 0 0 0 0 0 0 0 0 0 0 0 0 0 0 0 0 0 0 0 0 0 0 0 0 0 0 0 0 0
0 0 0 0 0 0 0 0 0 0 0 0 0 0 0 0 0 0 0 0 0 0 0 0 0 0 0 0 0 0 0 0 0 0 0 0 0 0 0 0 0 0 0
0 0 0 0 0 0 0 0 0 0 0 0 0 0 0 0 0 0 0 0 0 0 0 0 0 0 0 0 0 0 0 0 0 0 0 0 0 0 0 0 0 0 0
0 0 0 0 0 0 0 0 0 0 0 0 0 0 0 0 0 0 0 0 0 0 0 0 0 0 0 0 0 0 0 0 0 0 0 0 0 0 0 0 0 0 0
0 0 0 0 0 0 0 0 0 0 0 0 0 0 0 0 0 0 0 0 0 0 0 0 0 0 0 0 0 0 0 0 0 0 0 0 0 0 0 0 0 0 0
0 0 0 0 0 0 0 0 0 0 0 0 0 0 0 0 0 0 0 0 0 0 0 0 0 0 0 0 0 0 0 0 0 0 0 0 0 0 0 0 0 0 0
Wind_Speed
4 6 11 12 13 13 13 14 14 13 13 14 14 14 14 14 14 14 15 15 16 17 17 17 18 17 18 17 17 17 17 17 17 16 17 17 17 17 17 16 14 10 17
8 7 11 12 13 13 13 13 13 13 13 14 14 14 14 14 14 15 15 15 16 16 16 16 16 16 16 16 15 15 15 15 16 15 15 14 16 16 16 15 14 10 16
10 8 9 11 13 13 13 13 13 13 13 13 13 14 14 14 14 14 14 15 15 15 16 15 15 15 14 14 13 13 13 14 14 14 12 6 9 14 15 15 15 15 15
11 9 9 11 13 14 13 13 12 13 13 13 13 13 13 13 13 13 14 14 14 15 15 14 14 13 12 12 11 12 12 12 13 12 6 5 5 13 14 14 14 14 13
9 8 9 12 13 14 13 13 12 12 12 13 13 13 13 13 13 13 13 13 14 14 14 13 13 12 11 10 10 11 11 11 12 9 5 5 4 11 13 13 13 12 12
9 8 9 12 13 13 13 13 12 12 12 12 13 13 13 13 13 12 12 13 13 13 13 12 12 10 9 9 9 10 10 10 9 5 5 4 3 10 11 11 11 11 11
9 8 9 11 12 12 13 13 12 12 12 12 12 12 12 12 12 12 12 12 12 12 12 11 10 9 8 7 8 9 10 9 6 5 4 3 4 9 10 10 9 9 10
10 8 8 11 11 11 12 11 11 11 12 12 12 12 12 12 12 12 12 12 12 12 11 10 9 7 6 6 7 8 8 7 6 5 3 2 5 8 8 8 8 8 9
9 8 7 7 9 10 11 11 10 10 10 10 11 11 10 10 11 10 10 11 12 11 10 9 8 6 4 4 5 6 7 7 4 2 3 1 4 6 7 7 7 7 7
8 8 7 7 6 7 7 10 11 10 10 10 10 10 10 10 9 9 8 10 11 10 10 9 7 5 3 2 3 4 5 5 3 3 1 1 4 5 5 5 6 6 6
8 7 8 7 7 6 6 9 9 10 10 10 9 10 8 5 5 6 7 9 9 10 10 9 7 5 2 0 2 2 3 1 2 2 1 3 5 5 5 4 5 5 5
10 9 8 8 8 7 6 6 5 5 6 6 5 6 4 4 4 5 7 8 9 9 9 9 7 5 2 1 2 1 0 1 2 1 2 4 5 5 5 5 5 5 5
9 9 9 9 9 8 6 5 4 3 4 5 6 6 5 4 3 3 3 4 5 6 4 5 4 2 2 2 1 1 1 1 1 2 2 5 6 6 6 6 6 6 6
8 9 9 10 9 9 8 6 6 5 5 5 6 7 5 4 4 4 3 4 3 3 3 3 2 3 3 4 3 3 2 2 2 2 3 6 6 7 7 7 8 8 7
10 11 10 10 10 10 9 7 7 7 7 7 6 7 7 6 6 5 4 4 4 4 4 4 4 4 4 4 4 4 4 4 4 4 3 7 8 8 9 9 9 9 9
12 12 11 11 11 10 9 8 8 8 7 7 7 8 9 7 7 6 6 6 5 5 5 5 5 5 4 4 5 5 5 5 5 5 4 5 9 10 10 11 11 11 11
12 12 12 12 11 12 11 10 8 7 7 7 7 9 10 8 8 7 7 6 6 6 6 5 5 4 4 4 6 6 5 5 5 6 5 4 5 9 11 12 12 13 13
11 12 13 11 12 13 11 10 7 7 8 7 7 8 10 10 9 8 7 7 6 6 6 5 5 5 5 5 5 5 5 4 6 6 5 5 5 5 8 13 13 14 14
14 13 14 13 14 13 12 9 8 7 8 7 7 8 9 11 10 9 8 7 7 6 6 6 6 5 5 6 5 5 5 5 6 6 7 7 7 7 6 9 13 13 15
13 13 14 14 14 12 9 7 6 7 8 7 8 9 10 10 11 10 7 8 8 7 7 6 6 6 5 5 5 5 5 6 6 7 8 7 7 9 8 7 7 9 14
11 13 14 15 14 11 9 9 10 11 9 8 8 10 11 10 11 10 8 8 9 9 9 9 6 7 6 3 3 4 5 7 9 8 8 7 9 9 8 9 7 6 6
13 14 14 15 14 14 12 10 7 7 6 7 6 8 11 11 12 11 11 9 9 9 9 10 9 6 5 5 4 2 4 5 7 9 8 9 10 7 8 10 9 9 7
12 14 13 15 15 15 13 7 4 4 3 5 8 10 12 12 12 12 13 11 10 10 11 12 11 11 9 7 6 5 5 7 3 4 7 9 8 8 8 7 10 10 9
13 12 13 14 14 14 13 10 12 12 13 13 10 9 10 12 13 13 13 13 12 11 12 11 11 10 10 8 6 7 6 4 3 4 3 5 7 9 9 8 9 10 9
11 10 11 12 12 12 13 14 14 14 12 8 7 8 9 10 12 14 14 13 13 12 13 12 11 12 11 11 8 5 8 6 6 5 7 4 3 6 7 8 7 8 9
8 8 8 9 11 11 13 14 15 16 14 10 9 10 10 9 10 13 14 14 14 13 13 14 13 14 13 13 11 9 7 6 8 8 11 8 6 5 6 7 8 8 8
Wind_Direction
151 159 147 142 137 133 128 123 119 117 114 111 108 105 102 101 100 100 100 98 97 96 93 92 91 90 89 87 85 83 80 78 76 76 78 80 80 80 77 74 71 68 76
150 153 145 142 138 135 132 128 125 122 119 116 112 109 108 105 102 101 102 101 99 97 96 95 94 93 92 91 89 85 83 82 79 75 73 75 79 78 77 78 79 78 77
141 145 142 141 138 135 134 132 130 128 124 121 118 115 113 109 108 107 107 105 103 101 100 99 99 98 96 93 87 83 82 85 85 80 73 57 72 79 78 76 76 76 76
142 144 142 140 139 138 137 136 134 132 130 127 123 121 118 115 114 114 111 111 109 106 105 104 103 102 98 91 83 79 81 86 87 83 65 52 66 80 79 76 74 75 76
138 140 143 142 143 142 140 139 137 137 135 132 129 126 124 121 120 118 117 116 114 111 109 108 107 106 98 87 78 76 83 86 90 82 68 57 60 83 81 78 77 76 78
137 140 146 145 146 146 145 143 142 141 140 138 135 131 129 127 126 124 122 121 118 117 116 113 111 107 99 88 78 78 81 90 90 81 70 62 65 88 87 85 84 83 82
140 143 150 148 148 149 149 148 147 145 144 143 140 137 135 135 133 131 128 127 125 122 120 118 115 111 102 87 80 79 74 89 95 88 78 65 80 95 92 91 91 90 89
145 147 151 151 152 152 153 152 151 150 149 148 147 145 142 142 142 139 136 134 133 130 128 125 123 118 105 86 75 72 68 78 102 98 88 74 91 98 94 92 97 97 97
146 148 151 155 156 156 155 154 153 153 153 152 150 147 144 145 146 143 142 142 142 140 137 135 133 131 119 90 70 66 64 82 101 106 103 90 109 109 102 101 105 104 103
151 155 158 159 157 156 157 158 156 157 157 154 150 147 147 146 146 146 148 151 151 149 147 147 148 150 143 99 61 60 67 85 97 112 109 131 129 123 119 118 120 118 115
164 167 166 167 165 162 161 164 160 160 161 156 154 153 148 145 147 150 158 158 157 156 158 161 165 168 164 36 19 50 69 98 123 132 148 157 154 145 141 142 145 141 135
179 178 175 175 174 170 171 163 163 164 163 160 159 160 156 155 161 162 169 167 165 165 169 175 178 177 173 293 324 1 77 140 150 178 194 176 174 172 172 173 173 167 164
184 183 182 181 180 177 174 170 172 169 169 171 171 172 167 163 165 164 164 168 169 171 172 183 180 185 209 229 241 244 221 180 184 203 209 195 191 195 197 198 194 191 189
188 193 189 184 183 184 179 179 180 179 181 184 185 182 174 173 176 177 178 177 175 175 180 184 190 207 224 230 226 228 221 202 199 202 219 213 208 211 216 216 210 208 206
198 198 195 188 187 186 184 186 187 189 190 191 190 191 185 182 185 185 188 187 188 184 187 193 203 212 219 226 225 220 219 211 205 206 219 220 218 221 227 228 224 219 216
206 204 197 194 191 187 190 192 191 192 193 193 196 197 193 190 188 188 192 194 197 196 196 199 205 210 218 220 225 221 219 215 214 212 215 224 226 227 232 235 235 231 227
207 204 200 199 193 193 195 196 194 193 192 197 199 199 199 196 193 192 195 200 203 200 199 203 211 212 218 222 229 228 224 221 221 220 217 218 226 231 234 238 240 239 238
206 203 203 200 197 199 198 197 196 195 197 201 199 200 202 201 197 195 200 205 202 199 200 203 205 209 219 221 225 230 227 227 228 226 222 221 220 226 233 237 240 242 241
208 205 202 201 201 201 199 197 197 197 202 203 202 205 206 204 201 201 206 206 198 201 206 208 207 203 213 222 227 232 233 232 233 231 229 226 223 223 224 234 236 238 241
210 207 205 203 204 200 196 194 199 205 208 206 207 208 206 208 206 206 210 207 200 204 210 209 210 209 212 213 228 240 239 237 235 234 234 231 227 225 222 224 229 235 237
210 207 206 204 203 195 194 199 204 213 211 210 212 210 207 209 207 209 214 209 207 213 215 210 207 213 219 190 210 262 267 245 241 238 233 232 231 227 222 222 222 222 232
212 209 208 208 203 200 203 202 203 203 209 213 213 214 212 212 210 212 215 215 212 217 217 214 209 213 215 186 186 204 277 284 248 236 229 230 233 226 226 225 222 221 221
216 213 211 209 207 204 203 193 188 186 202 208 215 218 217 214 214 216 217 217 216 217 222 219 214 215 221 210 197 186 208 239 279 267 235 231 229 225 229 226 225 225 223
219 215 212 210 208 205 199 195 197 205 215 219 217 217 213 212 216 218 219 219 220 220 224 222 217 219 218 222 216 220 219 189 209 285 280 243 233 231 230 228 228 228 224
218 213 211 209 209 205 200 202 205 215 223 225 215 217 217 215 217 219 220 221 223 224 225 223 218 218 219 224 218 210 226 233 228 238 270 275 258 238 232 229 229 229 227
221 212 209 206 210 206 203 206 209 216 221 220 217 220 221 221 221 221 221 222 224 226 226 225 223 222 224 226 225 217 208 213 218 223 243 252 255 249 232 228 228 229 227